Location: Krasnoyarskiy Pitomnik
(51.1333°N, 71.6167°E)
Time: 14:24:01
(UTC+00:00)

Meteor 1-21 - Pass Details

Date: 22 October 2021
Orbit: 844 x 888 km, 81.2° (Epoch: 27 November)

Event Time Altitude Azimuth Distance (km) Brightness Sun altitude
Exits shadow 23:06:26 18° 176° (S) 1,961 6.0 -26.2°
Maximum altitude 23:10:36 67° 98° (E) 927 4.5 -25.6°
Drops below altitude 10° 23:16:10 10° 17° (NNE) 2,484 7.0 -24.7°
Sets 23:18:36 0° 15° (NNE) 3,421 7.7 -24.3°
